Regional Weather Roundup
Issued by NWS

Home | Current Version | Previous Version | Graphics & Text | Print | Product List | Glossary On
Versions: 1 2 3 4 5 6 7 8 9 10 11 12 13 14 15 16 17 18 19 20 21 22 23 24 25 26 27 28 29 30 31 32 33 34 35 36 37 38 39 40 41 42 43 44 45 46 47 48 49 50
000
ASUS45 KABQ 171010
RWRNM
NEW MEXICO REGIONAL WEATHER ROUNDUP
NATIONAL WEATHER SERVICE ALBUQUERQUE NM
400 AM MDT TUE OCT 17 2017

NOTE: "FAIR" MEANS FEW OR NO CLOUDS BELOW 12,000 FEET AGL WITH NO
       SIGNIFICANT WEATHER OR OBSTRUCTIONS TO VISION.

      THIS PRODUCT IS RELEASED AS TWO VERSIONS.  ONE VERSION NEAR
      THE TOP OF THE HOUR CONTAINING PRELIMINARY DATA FROM ALBUQUERQUE
      AND OTHER STATIONS.  A FINAL VERSION WITH ADDITIONAL DATA IS
      ISSUED ABOUT 10 MINUTES AFTER THE HOUR.

NMZ501-503-504-510>518-171100-
NORTHWEST PLATEAU/NORTHCENTRAL MOUNTAINS

CITY           SKY/WX    TMP DP  RH WIND       PRES   REMARKS
FARMINGTON     FAIR      37  19  48 E9        30.36S WCI  30
LOS ALAMOS     FAIR      51  16  25 CALM      30.41F
SANTA FE       FAIR      41  26  55 N8        30.37F
TAOS           FAIR      31  18  58 VRB6      30.44F WCI  25
ANGEL FIRE     FAIR      19  16  87 CALM      30.48F

$$
NMZ402-403-502-505>509-171100-
WESTCENTRAL MOUNTAINS/SOUTHWEST MOUNTAINS

CITY           SKY/WX    TMP DP  RH WIND       PRES   REMARKS
GALLUP         FAIR      32  15  49 NE6       30.41F WCI  26
GRANTS         FAIR      36  22  56 W6        30.42F WCI  32
SILVER CITY    FAIR      48  40  73 N7        30.34F

$$
NMZ407-409-411-412-171100-
SOUTHERN DESERTS

CITY           SKY/WX    TMP DP  RH WIND       PRES   REMARKS
DEMING         FAIR      51  37  58 NW5       30.28F
LAS CRUCES     FAIR      49  37  62 NW5       30.31S
HOLLOMAN AFB   FAIR      48  34  57 NE7       30.31F
ALAMOGORDO     FAIR      52  36  54 N7        30.30F
T OR C         FAIR      55  40  56 W8        30.31F

$$
NMZ519>523-171100-
CENTRAL VALLEYS/CENTRAL HIGHLANDS

CITY           SKY/WX    TMP DP  RH WIND       PRES   REMARKS
ALBUQUERQUE    FAIR      50  28  42 CALM      30.34F
DOUBLE EAGLE   FAIR      37  24  60 CALM      30.36F
MORIARTY ARPT  FAIR      33  28  85 CALM      30.38F
CLINES CORNERS NOT AVBL
BELEN          FAIR      43  31  62 CALM      30.33F
SOCORRO        FAIR      50  36  57 NW3       30.32F

$$
NMZ524>526-539-540-171100-
SOUTHCENTRAL MOUNTAINS

CITY           SKY/WX    TMP DP  RH WIND       PRES   REMARKS
RUIDOSO        FAIR      45  27  49 W10       30.41F

$$
NMZ527>531-171100-
NORTHEAST HIGHLANDS/NORTHEAST PLAINS

CITY           SKY/WX    TMP DP  RH WIND       PRES   REMARKS
LAS VEGAS      FAIR      50  12  21 W3        30.34F
RATON          FAIR      32  24  72 NE7       30.29F WCI  26
CLAYTON        FAIR      48  26  42 W9        30.18F

$$
NMZ532>537-171100-
EASTCENTRAL PLAINS

CITY           SKY/WX    TMP DP  RH WIND       PRES   REMARKS
SANTA ROSA     FAIR      50  28  42 SW5       30.26S
TUCUMCARI      FAIR      48  35  60 W12       30.19F
CANNON AFB     FAIR      46  36  68 W10       30.26F
CLOVIS AIRPORT FAIR      45  36  70 W14       30.25F

$$
NMZ028-029-538-171100-
SOUTHEAST PLAINS

CITY           SKY/WX    TMP DP  RH WIND       PRES   REMARKS
ROSWELL        FAIR      42  38  85 W6        30.27F
ARTESIA        FAIR      46  34  61 S7        30.27F
CARLSBAD       FAIR      42  38  85 E3        30.25F
HOBBS          FAIR      45  36  70 W6        30.27F


$$




USA.gov is the U.S. government's official web portal to all federal, state and local government web resources and services.